This is the latest recevied weather packets stored in our database for station/object KI7CSN-13. If no packets are shown the sender has not sent any weather packets the latest 10 day(s).
| Time | Temp. | Humidity | Pressure | Rain* | Wind** | Luminosity | Snow |
|---|---|---|---|---|---|---|---|
| 1777802267 | 13.89° C | 28% | 982.3 hPa | 0 mm | - | - | - |
| 1777801967 | 14.44° C | 27% | 982.3 hPa | 0 mm | - | - | - |
| 1777801667 | 15° C | 27% | 982.3 hPa | 0 mm | - | - | - |
| 1777801367 | 14.44° C | 27% | 982.4 hPa | 0 mm | - | - | - |
| 1777801067 | 13.89° C | 28% | 982.4 hPa | 0 mm | - | - | - |
| 1777800767 | 15° C | 26% | 982.3 hPa | 0 mm | - | - | - |
| 1777800467 | 15° C | 26% | 982.4 hPa | 0 mm | - | - | - |
| 1777800167 | 13.89° C | 27% | 982.4 hPa | 0 mm | - | - | - |
| 1777799867 | 15° C | 25% | 982.4 hPa | 0 mm | - | - | - |
| 1777799567 | 13.33° C | 27% | 982.3 hPa | 0 mm | - | - | - |
| 1777799267 | 13.33° C | 27% | 982.3 hPa | 0 mm | - | - | - |
| 1777798967 | 13.89° C | 28% | 982.4 hPa | 0 mm | - | - | - |
| 1777798667 | 13.89° C | 26% | 982.5 hPa | 0 mm | - | - | - |
| 1777798367 | 14.44° C | 27% | 982.5 hPa | 0 mm | - | - | - |
| 1777798067 | 13.89° C | 27% | 982.6 hPa | 0 mm | - | - | - |
| 1777797767 | 15.56° C | 26% | 982.6 hPa | 0 mm | - | - | - |
| 1777797467 | 15° C | 26% | 982.9 hPa | 0 mm | - | - | - |
| 1777797167 | 15.56° C | 25% | 982.9 hPa | 0 mm | - | - | - |
| 1777796867 | 15.56° C | 26% | 983 hPa | 0 mm | - | - | - |
| 1777796567 | 15.56° C | 26% | 983 hPa | 0 mm | - | - | - |
| 1777796267 | 15.56° C | 25% | 983.1 hPa | 0 mm | - | - | - |
| 1777795967 | 15° C | 26% | 983.2 hPa | 0 mm | - | - | - |
| 1777795667 | 13.89° C | 26% | 983.2 hPa | 0 mm | - | - | - |
| 1777795367 | 15.56° C | 25% | 983.3 hPa | 0 mm | - | - | - |
| 1777795067 | 16.11° C | 24% | 983.2 hPa | 0 mm | - | - | - |
* Rain latest hour (hover to see other rain measurements)
** Current wind speed in m/s (hover to see current wind gust speed)